This is the latest recevied weather packets stored in our database for station/object N8BAP. If no packets are shown the sender has not sent any weather packets the latest 10 day(s).
| Time | Temp. | Humidity | Pressure | Rain* | Wind** | Luminosity | Snow |
|---|---|---|---|---|---|---|---|
| 1778328894 | 11.67° C | 97% | 1013.7 hPa | 0 mm | - | 25 W/m² | - |
| 1778328592 | 11.67° C | 97% | 1013.6 hPa | 0 mm | - | 7 W/m² | - |
| 1778328290 | 11.67° C | 97% | 1013.8 hPa | 0 mm | - | 7 W/m² | - |
| 1778327988 | 11.67° C | 97% | 1013.8 hPa | 0 mm | - | 14 W/m² | - |
| 1778327685 | 11.67° C | 97% | 1013.9 hPa | 0 mm | - | 16 W/m² | - |
| 1778327382 | 11.67° C | 97% | 1013.9 hPa | 0 mm | - | 21 W/m² | - |
| 1778327081 | 11.67° C | 97% | 1013.7 hPa | 0 mm | - | 23 W/m² | - |
| 1778326780 | 11.67° C | 97% | 1013.8 hPa | 1.27 mm | - | 22 W/m² | - |
| 1778326477 | 11.67° C | 97% | 1013.7 hPa | 1.27 mm | - | 17 W/m² | - |
| 1778326173 | 11.67° C | 97% | 1013.6 hPa | 1.27 mm | - | 14 W/m² | - |
| 1778325871 | 11.67° C | 97% | 1013.9 hPa | 0 mm | - | 11 W/m² | - |
| 1778325567 | 11.67° C | 96% | 1014.2 hPa | 1.78 mm | - | 10 W/m² | - |
| 1778325265 | 11.67° C | 96% | 1014 hPa | 1.78 mm | - | 8 W/m² | - |
| 1778324962 | 11.67° C | 96% | 1014.1 hPa | 1.78 mm | - | 6 W/m² | - |
| 1778324658 | 11.67° C | 96% | 1014 hPa | 1.78 mm | - | 4 W/m² | - |
| 1778324356 | 11.67° C | 96% | 1013.8 hPa | 1.78 mm | - | 3 W/m² | - |
| 1778324055 | 11.67° C | 96% | 1013.8 hPa | 1.27 mm | - | 2 W/m² | - |
| 1778323751 | 11.67° C | 96% | 1013.7 hPa | 1.27 mm | - | 0 W/m² | - |
| 1778323448 | 11.67° C | 96% | 1013.8 hPa | 1.78 mm | - | 0 W/m² | - |
| 1778323145 | 11.67° C | 96% | 1013.6 hPa | 3.05 mm | - | 0 W/m² | - |
| 1778322842 | 11.67° C | 96% | 1013.7 hPa | 1.27 mm | - | 0 W/m² | - |
| 1778322541 | 11.67° C | 96% | 1013.7 hPa | 1.78 mm | - | 0 W/m² | - |
| 1778322238 | 11.67° C | 96% | 1013.7 hPa | 3.05 mm | - | 0 W/m² | - |
| 1778321934 | 11.67° C | 96% | 1014.1 hPa | 3.05 mm | - | 0 W/m² | - |
| 1778321630 | 11.67° C | 96% | 1013.9 hPa | 3.05 mm | - | 0 W/m² | - |
* Rain latest hour (hover to see other rain measurements)
** Current wind speed in m/s (hover to see current wind gust speed)